Fulton, NY

7:40 AM EDT on October 15, 2019 (GMT -0400)
Oswego County

Weather History for KFZY - May, 2019

Change the Weather History Date:

Tuesday, May 7, 2019

  Actual Average (KSYR) Record (KSYR)
Temperature  
Mean Temperature 52 °F -  
Max Temperature 60 °F 63 °F 88 °F (1930)
Min Temperature 42 °F 40 °F 25 °F (1966)
Degree Days  
Heating Degree Days 13    
Growing Degree Days 2 (Base 50)    
Moisture  
Dew Point 44 °F    
Average Humidity 80    
Maximum Humidity 90    
Minimum Humidity 60    
Precipitation  
Precipitation 0.28 in - - ()
Sea Level Pressure  
Sea Level Pressure 30.16 in    
Wind  
Wind Speed 4 mph (WNW)    
Max Wind Speed 10 mph    
Max Gust Speed -    
Visibility 10 miles    
Events Rain    
Averages and records for this station are not official NWS values.
T = Trace of Precipitation, MM = Missing Value Source: NWS Daily Summary

Daily Weather History Graph

Daily Weather History Graph

Search for Another Location

Airport or City:

Astronomy

May. 07, 2019 Rise Set
Actual Time 5:50 AM EDT 8:14 PM EDT
Civil Twilight 5:19 AM EDT 8:46 PM EDT
Nautical Twilight 4:39 AM EDT 9:25 PM EDT
Astronomical Twilight 3:55 AM EDT 10:10 PM EDT
Moon 7:53 AM EDT (5/7) 11:14 PM EDT (5/7)
Length of Visible Light 15h 26m
Length of Day
14h 23m
Waxing Crescent, 8% of the Moon is Illuminated
May 7
Waxing Crescent
May 11
First Quarter
May 18
Full
May 26
Last Quarter
Jun 3
New

Hourly Weather History & Observations

Time (EDT) Temp. Windchill Dew Point Humidity Pressure Visibility Wind Dir Wind Speed Gust Speed Precip Events Conditions
12:54 AM 60.1 °F - 46.0 °F 60% 30.04 in 10.0 mi Calm Calm - 0.01 in   Overcast
1:54 AM 57.9 °F - 45.0 °F 62% 30.04 in 10.0 mi Calm Calm - N/A   Overcast
2:54 AM 55.9 °F - 46.9 °F 72% 30.04 in 10.0 mi Calm Calm - 0.03 in Rain Light Rain
3:54 AM 54.0 °F - 48.9 °F 83% 30.04 in 10.0 mi Calm Calm - 0.00 in   Overcast
4:54 AM 54.0 °F - 48.0 °F 80% 30.04 in 10.0 mi NW 5.8 mph - N/A   Overcast
5:54 AM 53.1 °F - 48.0 °F 83% 30.05 in 10.0 mi WNW 4.6 mph - 0.00 in   Overcast
6:54 AM 52.0 °F - 46.9 °F 83% 30.06 in 10.0 mi NW 3.5 mph - 0.01 in Rain Light Rain
7:54 AM 51.1 °F - 46.0 °F 83% 30.11 in 10.0 mi WNW 9.2 mph - 0.00 in   Overcast
8:54 AM 50.0 °F - 44.1 °F 80% 30.13 in 10.0 mi NW 9.2 mph - 0.01 in Rain Light Rain
9:18 AM 48.9 °F - 45.0 °F 86% 30.12 in 10.0 mi NNW 5.8 mph - 0.00 in Rain Light Rain
9:54 AM 48.9 °F - 46.0 °F 90% 30.13 in 10.0 mi West 4.6 mph - 0.03 in Rain Light Rain
10:54 AM 50.0 °F - 46.0 °F 86% 30.16 in 10.0 mi NW 6.9 mph - 0.05 in Rain Rain
11:54 AM 50.0 °F - 46.0 °F 86% 30.17 in 10.0 mi West 8.1 mph - 0.07 in Rain Light Rain
12:09 PM 50.0 °F - 46.0 °F 86% 30.17 in 10.0 mi WNW 8.1 mph - 0.01 in Rain Light Rain
12:54 PM 50.0 °F - 45.0 °F 83% 30.18 in 10.0 mi WNW 8.1 mph - 0.02 in Rain Light Rain
1:16 PM 48.9 °F - 45.0 °F 86% 30.18 in 10.0 mi WSW 8.1 mph - 0.01 in Rain Light Rain
1:35 PM 48.9 °F - 45.0 °F 86% 30.19 in 10.0 mi West 8.1 mph - 0.02 in Rain Light Rain
1:54 PM 48.0 °F - 44.1 °F 86% 30.20 in 10.0 mi WNW 9.2 mph - 0.04 in Rain Light Rain
2:50 PM 48.2 °F - 44.6 °F 87% 30.21 in 10.0 mi West 10.4 mph - 0.00 in Rain Light Rain
2:54 PM 48.9 °F - 44.1 °F 83% 30.21 in 10.0 mi West 8.1 mph - 0.00 in Rain Light Rain
3:16 PM 48.9 °F - 44.1 °F 83% 30.21 in 10.0 mi West 9.2 mph - 0.00 in   Overcast
3:28 PM 48.9 °F - 44.1 °F 83% 30.21 in 10.0 mi WNW 8.1 mph - 0.00 in   Overcast
3:39 PM 48.9 °F - 44.1 °F 83% 30.20 in 10.0 mi West 5.8 mph - 0.00 in   Overcast
3:54 PM 48.9 °F - 43.0 °F 80% 30.21 in 10.0 mi WNW 5.8 mph - 0.00 in Rain Light Rain
4:54 PM 50.0 °F - 43.0 °F 77% 30.20 in 10.0 mi Variable 3.5 mph - 0.01 in   Overcast
5:54 PM 52.0 °F - 41.0 °F 66% 30.21 in 10.0 mi West 4.6 mph - N/A   Clear
6:54 PM 53.1 °F - 41.0 °F 64% 30.21 in 10.0 mi WNW 3.5 mph - N/A   Clear
7:54 PM 50.0 °F - 39.9 °F 68% 30.21 in 10.0 mi West 3.5 mph - N/A   Overcast
8:54 PM 46.0 °F - 39.9 °F 79% 30.21 in 10.0 mi Calm Calm - N/A   Clear
9:54 PM 44.1 °F 42.5 °F 39.9 °F 85% 30.23 in 10.0 mi NE 3.5 mph - N/A   Clear
10:54 PM 44.1 °F 42.5 °F 39.0 °F 82% 30.24 in 10.0 mi WNW 3.5 mph - N/A   Scattered Clouds
11:54 PM 42.1 °F 40.2 °F 37.0 °F 82% 30.25 in 10.0 mi WNW 3.5 mph - N/A   Clear